Location: Cisewo
(53.3833°N, 14.9000°E)
Time: 13:07:00
(UTC+00:00)

Cosmos 540 Rocket - Pass Details

Date: 18 April 2021
Orbit: 741 x 753 km, 74.1° (Epoch: 16 May)

Event Time Altitude Azimuth Distance (km) Brightness Sun altitude
Rises 20:32:52 0° 336° (NNW) 3,202 8.2 -18.3°
Reaches altitude 10° 20:35:23 10° 344° (NNW) 2,273 7.0 -18.5°
Maximum altitude 20:40:14 40° 53° (NE) 1,094 4.3 -19.0°
Enters shadow 20:42:16 28° 101° (E) 1,378 4.4 -19.2°
